map of OUD home
OUD - Airport
Location
City:  Oujda, Morocco
Name:Les Anglades Airport
ICAO:GMFO
IATA:OUD

Details
Type:Airport (Aerodrome, Airfield)
Use:Public/Civil, International (customs port of entry)
Latitude:3447'14"N (34.787150)
Longitude:155'26"W (-1.923985)
Datum:WGS 1984
Elevation:1535 ft (468 m)
Variation:0.10W (WMM2015 magnetic declination)
0.11 annual change
Runways:1
Longest:9843 × 148 ft (3000 × 45 m), paved

Time
Time Zone:UTC+0 (DST+1)
Local Time:

Weather
METAR:GMFO 171500Z 35009KT 9999 FEW026 SCT033 21/12 Q1016 NOSIG
TAF:GMFO 171100Z 1712/1818 30006KT 9999 SCT020 SCT026
BECMG 1714/1718 32017KT
TEMPO 1723/1808 VRB03KT 8000 SCT013 SCT020 PROB30
TEMPO 1812/1818 36013KT 7000 -RA SCT010 SCT030 BKN033

Related Locations
Nearby:
Farthest:NZOX: 12263 mi / 19735 km
Okiwi Station, AUK, NZ

Find:

   beyond  
but within

Other Information
Maps:
NOTAMs:
Links:
Sources:

  
  • flag of Morocco
  

Sectional Chart

Flight Planning
at skyvector.com

Satellite Image

Google Maps Satellite view

 

Copyright © 2004-2018 Karl L. Swartz. All rights reserved.
The Great Circle Mapper name and logo are trademarks of the Great Circle Mapper.
All other trademarks mentioned herein belong to their respective owners.
Please see credits for attibutions and further copyright information.

  Follow gcmap on Facebook Follow gcmap on Twitter Follow gcmap on Google+ GCmap on LinkedIn

hCard Microformat

Geo Microformat